This is the latest recevied weather packets stored in our database for station/object N6RDS-8. If no packets are shown the sender has not sent any weather packets the latest 10 day(s).
| Time | Temp. | Humidity | Pressure | Rain* | Wind** | Luminosity | Snow |
|---|---|---|---|---|---|---|---|
| 1778103104 | 23.89° C | 22% | 1018.5 hPa | 0 mm | - | 661 W/m² | - |
| 1778102801 | 24.44° C | 22% | 1018.5 hPa | 0 mm | - | 672 W/m² | - |
| 1778102496 | 25° C | 21% | 1018.4 hPa | 0 mm | - | 680 W/m² | - |
| 1778102192 | 25° C | 22% | 1018.7 hPa | 0 mm | - | 688 W/m² | - |
| 1778101889 | 23.89° C | 23% | 1018.6 hPa | 0 mm | - | 696 W/m² | - |
| 1778101586 | 23.89° C | 23% | 1018.7 hPa | 0 mm | - | 705 W/m² | - |
| 1778101282 | 23.89° C | 23% | 1018.6 hPa | 0 mm | - | 712 W/m² | - |
| 1778100980 | 24.44° C | 22% | 1018.8 hPa | 0 mm | - | 720 W/m² | - |
| 1778100674 | 23.33° C | 21% | 1019 hPa | 0 mm | - | 725 W/m² | - |
| 1778100372 | 23.33° C | 20% | 1018.9 hPa | 0 mm | - | 735 W/m² | - |
| 1778100069 | 23.89° C | 20% | 1018.8 hPa | 0 mm | - | 739 W/m² | - |
| 1778099768 | 23.33° C | 20% | 1018.9 hPa | 0 mm | - | 744 W/m² | - |
| 1778099464 | 24.44° C | 22% | 1018.9 hPa | 0 mm | - | 748 W/m² | - |
| 1778099162 | 23.89° C | 21% | 1019.1 hPa | 0 mm | - | 753 W/m² | - |
| 1778098857 | 22.78° C | 21% | 1019 hPa | 0 mm | - | 757 W/m² | - |
| 1778098555 | 22.78° C | 22% | 1019.4 hPa | 0 mm | - | 761 W/m² | - |
| 1778098252 | 23.89° C | 22% | 1019.1 hPa | 0 mm | - | 765 W/m² | - |
| 1778097948 | 23.33° C | 23% | 1019.1 hPa | 0 mm | - | 768 W/m² | - |
| 1778097645 | 22.78° C | 23% | 1019.1 hPa | 0 mm | - | 771 W/m² | - |
| 1778097341 | 22.78° C | 21% | 1019.4 hPa | 0 mm | - | 772 W/m² | - |
| 1778097038 | 23.33° C | 21% | 1019.4 hPa | 0 mm | - | 777 W/m² | - |
| 1778096736 | 22.78° C | 18% | 1019.4 hPa | 0 mm | - | 778 W/m² | - |
| 1778096432 | 22.22° C | 23% | 1019.4 hPa | 0 mm | - | 778 W/m² | - |
| 1778096129 | 22.22° C | 22% | 1019.4 hPa | 0 mm | - | 777 W/m² | - |
| 1778095826 | 21.67° C | 22% | 1019.5 hPa | 0 mm | - | 779 W/m² | - |
* Rain latest hour (hover to see other rain measurements)
** Current wind speed in m/s (hover to see current wind gust speed)